Zurück zum Katalog

SKYBEE-A01

AktivKommunikationSSO
NORAD 62671·PAYLOAD·🇩🇪 Germany

Gestartet Jan 14, 2025 von Vandenberg Space Force Base

Loading…

Nächste Überflüge (nächste 24 Stunden)

TLE

AktuellSource: Space-Track

Epoche: Sep 14, 2026, 13:05 UTC

1 62671U 25009BQ  26257.54567649  .00001854  00000-0  85744-4 0  9996
2 62671  97.3927 334.5401 0006019  35.9893 324.1747 15.21370973149925

Verfolge SKYBEE-A01 in Echtzeit mit AllMySat

Download on the App Store